Torna al catalogo

SL-14 DEB

AttivoPO
NORAD 39982·DEBRIS·🇷🇺 Russia

Lanciato Aug 18, 1987 da Plesetsk Cosmodrome

Loading…

Prossimi Passaggi (prossime 24 ore)

TLE

AggiornatoSource: Space-Track

Epoca: Sep 14, 2026, 00:46 UTC

1 39982U 87068DJ  26257.03235473  .00000193  00000-0  14502-3 0  9997
2 39982  82.5503 169.1999 0017206 357.1860  16.4114 13.89745104622162

Traccia SL-14 DEB in tempo reale con AllMySat

Download on the App Store